[[{"header":{"parameterUnit":"m.s-1","parameterCategory":1,"la1":30.2992,"la2":30.254,"lo1":-89.0895,"lo2":-89.0443,"dy":0.0025,"dx":0.0025,"nx":19,"ny":19,"refTime":"2026-03-29T21:00:00:Z","depth":0,"parameterNumber":2,"parameterNumberName":"U-component_of_WINDS"},"data":[0,0,0,-7.5164,-7.5168,-7.5306,-7.5307,-7.5517,-7.5519,0,0,0,0,0,0,0,0,0,0,0,-7.5146,-7.5149,-7.5164,-7.5168,-7.5306,-7.5307,-7.5516,-7.5519,0,0,0,0,0,0,0,0,0,0,0,-7.5145,-7.5148,-7.5151,-7.5169,-7.5306,-7.5307,-7.5516,-7.5399,0,0,0,0,0,0,0,0,0,0,-7.5259,-7.5265,-7.5147,-7.5151,-7.517,-7.5306,-7.5307,-7.5393,-7.5406,-7.5469,0,-7.5534,0,-7.553,-7.5535,-7.5536,0,0,0,-7.5151,-7.5254,-7.5271,-7.5151,-7.5171,-7.5306,-7.5239,-7.54,-7.5415,-7.5488,-7.5536,-7.5543,-7.5534,-7.5537,-7.5538,-7.5965,-7.5967,0,0,-7.5143,-7.5183,-7.5261,-7.5282,-7.5266,-7.5235,-7.5243,-7.5409,-7.5464,-7.5537,-7.5547,-7.5537,-7.5539,-7.5541,-7.5962,-7.5965,0,0,0,-7.5133,-7.5178,-7.519,-7.5275,-7.5297,-7.5239,-7.5249,-7.5456,-7.5457,-7.5549,-7.554,-7.554,-7.5543,-7.5959,-7.5963,-7.6139,0,0,0,-7.5128,-7.5172,-7.5188,-7.5214,-7.5295,-7.5379,-7.5294,-7.5445,-7.5463,-7.5539,-7.554,-7.5545,-7.5956,-7.5961,-7.6128,-7.6214,0,0,0,-7.5129,-7.5172,-7.52,-7.5216,-7.5277,-7.5375,-7.5385,-7.5448,-7.5458,-7.5536,-7.5546,-7.5954,-7.596,-7.6117,-7.6197,-7.6335,0,0,0,-7.5142,-7.5356,-7.5204,-7.5438,-7.5276,-7.5485,-7.5383,-7.5537,-7.5626,-7.5541,-7.5956,-7.5963,-7.6114,-7.6187,-7.6325,-7.6456,-7.6516,0,0,-7.5433,-7.5392,-7.5527,-7.5395,-7.5641,-7.5461,-7.5732,-7.5775,-7.5746,-7.5893,-7.5903,-7.6131,-7.6196,-7.6333,-7.6844,-7.6892,0,0,0,-7.5632,-7.5729,-7.5786,-7.5873,-7.5913,-7.5952,-7.595,-7.5966,-7.6088,-7.5831,-7.622,-7.6257,-7.6336,-7.6396,-7.6437,-7.65,-7.5994,-7.5993,-7.5993,-7.6098,-7.605,-7.6268,-7.6238,-7.6324,-7.632,-7.6384,-7.6404,-7.633,-7.6424,-7.6465,-7.6781,-7.6854,-7.6884,-7.6951,-7.6534,-7.6535,-7.6536,-7.6536,-7.6516,-7.6643,-7.6542,-7.6717,-7.6665,-7.6811,-7.6816,-7.6759,-7.6885,-7.6746,-7.6813,-7.6661,-7.6938,-7.6993,-7.6549,-7.6547,-7.6545,-7.6544,-7.6543,-7.6811,-7.6863,-7.6881,-7.7002,-7.71,-7.7062,-7.7188,-7.7136,-7.7089,-7.7156,-7.7191,-7.7188,-7.7175,-7.7178,-7.7179,-7.718,-7.7181,-7.7181,-7.7182,-7.7108,-7.7123,-7.7236,-7.7297,-7.7345,-7.7403,-7.7402,-7.7448,-7.7485,-7.7437,-7.7437,-7.7352,-7.6976,-7.688,-7.7199,-7.7196,-7.7194,-7.7192,-7.7191,-7.7541,-7.7435,-7.7611,-7.766,-7.7726,-7.7825,-7.776,-7.7857,-7.7888,-7.7951,-7.7854,-7.7586,-7.7539,-7.7506,-7.7425,-7.7866,-7.7866,-7.7866,-7.7866,-7.7787,-7.776,-7.7926,-7.8007,-7.8081,-7.804,-7.8237,-7.8239,-7.8223,-7.8239,-7.8169,-7.806,-7.8029,-7.8,-7.7956,-7.788,-7.8427,-7.8427,-7.8428,-7.8048,-7.8026,-7.8203,-7.8189,-7.8237,-7.8279,-7.8461,-7.8556,-7.8517,-7.8449,-7.8249,-7.8225,-7.8048,-7.7994,-7.7916,-7.785,-7.7709,0,0]},{"header":{"parameterUnit":"m.s-1","parameterCategory":1,"la1":30.2992,"la2":30.254,"lo1":-89.0895,"lo2":-89.0443,"dy":0.0025,"dx":0.0025,"nx":19,"ny":19,"refTime":"2026-03-29T21:00:00:Z","depth":0,"parameterNumber":3,"parameterNumberName":"V-component_of_WINDS"},"data":[0,0,0,2.1122,2.1123,2.1156,2.1156,2.1208,2.1208,0,0,0,0,0,0,0,0,0,0,0,2.1118,2.1119,2.1122,2.1123,2.1156,2.1156,2.1208,2.1208,0,0,0,0,0,0,0,0,0,0,0,2.1118,2.1119,2.1119,2.1124,2.1156,2.1156,2.1208,2.1179,0,0,0,0,0,0,0,0,0,0,2.1146,2.1147,2.1118,2.1119,2.1124,2.1156,2.1156,2.1178,2.1181,2.1197,0,2.1212,0,2.1211,2.1212,2.1213,0,0,0,2.1119,2.1144,2.1149,2.1119,2.1124,2.1156,2.114,2.118,2.1183,2.1201,2.1213,2.1215,2.1212,2.1213,2.1213,2.132,2.1321,0,0,2.1117,2.1127,2.1146,2.1151,2.1147,2.1139,2.1141,2.1182,2.1195,2.1213,2.1216,2.1213,2.1213,2.1214,2.1319,2.132,0,0,0,2.1115,2.1126,2.1129,2.1149,2.1155,2.114,2.1143,2.1193,2.1193,2.1216,2.1214,2.1214,2.1214,2.1319,2.132,2.1364,0,0,0,2.1114,2.1124,2.1128,2.1134,2.1154,2.1174,2.1153,2.119,2.1195,2.1213,2.1214,2.1215,2.1318,2.1319,2.1361,2.1383,0,0,0,2.1114,2.1124,2.1131,2.1135,2.1149,2.1173,2.1176,2.1191,2.1193,2.1213,2.1215,2.1317,2.1319,2.1358,2.1378,2.1414,0,0,0,2.1117,2.1168,2.1132,2.1188,2.1149,2.1201,2.1175,2.1213,2.1235,2.1214,2.1318,2.132,2.1358,2.1376,2.1412,2.1446,2.1461,0,0,2.1187,2.1177,2.121,2.1178,2.1239,2.1195,2.1262,2.1273,2.1265,2.1303,2.1305,2.1362,2.1378,2.1414,2.1545,2.1557,0,0,0,2.1235,2.1259,2.1273,2.1295,2.1305,2.1316,2.1316,2.132,2.1352,2.1286,2.1385,2.1394,2.1414,2.143,2.1441,2.1458,2.1328,2.1327,2.1327,2.1345,2.1336,2.139,2.1385,2.1406,2.1407,2.1424,2.143,2.1412,2.1436,2.1446,2.1527,2.1546,2.1554,2.1572,2.1464,2.1464,2.1464,2.1465,2.1447,2.1479,2.1457,2.1501,2.1491,2.1528,2.1533,2.1519,2.1553,2.1518,2.1535,2.1497,2.1568,2.1583,2.1468,2.1467,2.1467,2.1467,2.1466,2.1517,2.1531,2.1537,2.1571,2.1597,2.1591,2.1625,2.1614,2.1604,2.1621,2.1632,2.1631,2.1629,2.1628,2.1628,2.1628,2.1628,2.1629,2.1629,2.1588,2.1594,2.1624,2.1643,2.1657,2.1674,2.1679,2.1692,2.1705,2.1694,2.1694,2.1675,2.1577,2.1552,2.1633,2.1632,2.1632,2.1631,2.1631,2.1693,2.1669,2.1716,2.173,2.1753,2.1781,2.1768,2.1798,2.1808,2.1826,2.1804,2.1733,2.1722,2.1713,2.1693,2.1805,2.1805,2.1805,2.1805,2.1753,2.1747,2.1794,2.1819,2.1842,2.1836,2.1891,2.1896,2.1897,2.1903,2.1886,2.1858,2.185,2.1843,2.1832,2.1813,2.1953,2.1954,2.1954,2.1817,2.1814,2.1862,2.1864,2.1882,2.1897,2.1949,2.1979,2.1975,2.196,2.1908,2.1902,2.1857,2.1843,2.1824,2.1807,2.1771,0,0]}]]